[[{"header":{"parameterUnit":"m.s-1","parameterCategory":1,"la1":30.2991,"la2":30.254,"lo1":-89.0895,"lo2":-89.0444,"dy":0.0017,"dx":0.0017,"nx":28,"ny":28,"refTime":"2024-02-25T03:00:00:Z","depth":0,"parameterNumber":2,"parameterNumberName":"U-component_of_WINDS"},"data":[0,0,0,0,0,0,0,0,0,0,0,0,0,0,0,0,0,0,0,0,0,0,0,0,0,0,0,0,0,0,0,0,0,0,0,0,0,0,0,0,0,0,0,0,0,0,0,0,0,0,0,0,0,0,0,0,0,0,-1.5924,-1.5925,0,-1.6002,-1.6003,-1.6004,-1.6016,-1.6015,-1.6014,-1.6014,-1.6096,-1.6098,-1.6101,0,0,0,0,0,0,0,0,0,0,0,0,0,-1.5785,-1.5788,-1.5924,-1.5925,-1.5926,-1.6002,-1.6003,-1.6004,-1.6016,-1.6015,-1.6014,-1.6013,-1.6095,-1.6098,-1.6101,0,0,0,0,0,0,0,0,0,0,0,0,0,-1.5853,-1.5788,-1.5924,-1.5941,-1.5943,-1.6002,-1.6003,-1.6004,-1.6016,-1.6015,-1.6014,-1.6013,-1.6094,-1.6098,-1.6102,-1.615,0,0,-1.6115,-1.6117,0,0,0,0,0,0,0,0,-1.5849,-1.5858,-1.5937,-1.594,-1.5942,-1.5998,-1.5984,-1.6053,-1.6016,-1.5988,-1.6014,-1.6012,-1.6064,-1.6071,-1.6088,-1.6153,-1.6157,-1.6115,-1.6118,-1.612,-1.6121,0,0,0,0,0,0,0,-1.5844,-1.5854,-1.5955,-1.5938,-1.5942,-1.5945,-1.5953,-1.5997,-1.6031,-1.5991,-1.5992,-1.6001,-1.6065,-1.6084,-1.609,-1.6158,-1.6115,-1.6119,-1.6122,-1.6123,-1.6265,-1.6266,0,0,0,0,0,0,-1.5836,-1.585,-1.5952,-1.5957,-1.5892,-1.5948,-1.5958,-1.5981,-1.6031,-1.6037,-1.6002,-1.6001,-1.6077,-1.6085,-1.6093,-1.615,-1.612,-1.6124,-1.6126,-1.6264,-1.6265,-1.6266,0,0,0,0,0,0,-1.5833,-1.5845,-1.5949,-1.5904,-1.5918,-1.5952,-1.5978,-1.5983,-1.6002,-1.6039,-1.6045,-1.6014,-1.6076,-1.6087,-1.6135,-1.6153,-1.6126,-1.6129,-1.6262,-1.6264,-1.6266,-1.6267,0,0,0,0,0,0,-1.5829,-1.5844,-1.5862,-1.5904,-1.592,-1.599,-1.5979,-1.5986,-1.6009,-1.6009,-1.6052,-1.6059,-1.6076,-1.6128,-1.6139,-1.6159,-1.6133,-1.6261,-1.6263,-1.6265,-1.6265,-1.6268,-1.6271,0,0,0,0,0,-1.5824,-1.586,-1.5863,-1.5875,-1.5944,-1.5991,-1.6,-1.6019,-1.601,-1.6029,-1.6053,-1.6057,-1.615,-1.6133,-1.6145,-1.6167,-1.626,-1.6262,-1.6265,-1.6264,-1.6268,-1.6271,0,0,0,0,0,0,-1.5821,-1.5866,-1.587,-1.5921,-1.5952,-1.5993,-1.6017,-1.6023,-1.6057,-1.6056,-1.6079,-1.6088,-1.6135,-1.6156,-1.6137,-1.6214,-1.6204,-1.6209,-1.6199,-1.6203,-1.6206,-1.6199,-1.6136,0,0,0,0,0,-1.5825,-1.586,-1.5898,-1.5939,-1.5954,-1.5983,-1.6004,-1.6016,-1.6049,-1.6063,-1.609,-1.6122,-1.6159,-1.6182,-1.6218,-1.6268,-1.6277,-1.6289,-1.6292,-1.6294,-1.6298,-1.6325,-1.633,-1.6275,-1.6275,-1.6275,0,0,-1.5836,-1.5866,-1.5886,-1.5939,-1.5964,-1.5999,-1.5994,-1.6031,-1.6057,-1.6069,-1.6115,-1.6136,-1.6174,-1.6223,-1.6246,-1.6242,-1.6315,-1.6297,-1.6299,-1.6302,-1.6328,-1.6333,-1.6338,-1.6277,-1.6277,-1.6276,0,0,-1.5874,-1.59,-1.5936,-1.5961,-1.5999,-1.6018,-1.6026,-1.6066,-1.608,-1.6127,-1.6136,-1.6167,-1.623,-1.6255,-1.6277,-1.6322,-1.6327,-1.6333,-1.6348,-1.6374,-1.6378,-1.6382,-1.6397,-1.6402,-1.6337,-1.6337,-1.6337,0,-1.5883,-1.5935,-1.5954,-1.599,-1.6013,-1.6024,-1.606,-1.6084,-1.6132,-1.6148,-1.6142,-1.6219,-1.6246,-1.63,-1.6311,-1.6328,-1.6338,-1.6328,-1.6376,-1.638,-1.6384,-1.6399,-1.6404,-1.6338,-1.6338,-1.6338,-1.6338,0,-1.5943,-1.5979,-1.6004,-1.6049,-1.6074,-1.6111,-1.6135,-1.6159,-1.6168,-1.6187,-1.6234,-1.6266,-1.6307,-1.6321,-1.6331,-1.6377,-1.6373,-1.6371,-1.6361,-1.6389,-1.6403,-1.6409,-1.6338,-1.6338,-1.6338,-1.6338,0,0,-1.5981,-1.6034,-1.6043,-1.6063,-1.6105,-1.6133,-1.617,-1.6209,-1.6228,-1.6261,-1.6292,-1.6343,-1.6342,-1.6366,-1.6379,-1.6402,-1.6434,-1.6398,-1.6399,-1.6402,-1.6484,-1.6484,-1.649,-1.6438,-1.6439,-1.644,-1.6481,0,-1.6022,-1.6087,-1.6104,-1.6159,-1.6192,-1.6202,-1.6234,-1.6263,-1.6281,-1.6312,-1.6333,-1.6369,-1.6365,-1.6379,-1.6402,-1.6425,-1.6451,-1.6423,-1.6466,-1.6467,-1.6455,-1.6498,-1.6498,-1.6534,-1.6486,-1.6487,-1.6488,0,-1.6079,-1.6111,-1.6169,-1.6205,-1.6219,-1.6247,-1.6284,-1.6313,-1.6346,-1.6358,-1.6384,-1.6395,-1.6433,-1.6421,-1.6474,-1.6454,-1.6473,-1.6487,-1.6489,-1.6493,-1.6479,-1.6501,-1.6547,-1.6552,-1.6497,-1.6496,-1.6496,0,-1.6099,-1.6157,-1.6198,-1.6215,-1.6258,-1.6277,-1.6297,-1.6329,-1.6351,-1.6383,-1.6397,-1.6434,-1.6454,-1.6482,-1.6502,-1.6492,-1.6553,-1.6543,-1.6563,-1.6562,-1.6575,-1.6573,-1.6622,-1.6589,-1.6589,-1.6589,-1.6588,0,-1.6143,-1.6177,-1.6207,-1.6233,-1.6271,-1.6291,-1.6329,-1.6348,-1.6376,-1.6406,-1.6418,-1.6445,-1.647,-1.6501,-1.6517,-1.6557,-1.6567,-1.6577,-1.6581,-1.6575,-1.6574,-1.6587,-1.6585,-1.659,-1.659,-1.6589,-1.6589,0,-1.6171,-1.6193,-1.6238,-1.6275,-1.6285,-1.6312,-1.6344,-1.6368,-1.6387,-1.6424,-1.6433,-1.6463,-1.6499,-1.6522,-1.6569,-1.658,-1.6623,-1.6627,-1.6612,-1.6613,-1.6631,-1.6629,-1.669,-1.6698,-1.666,-1.666,-1.6661,0,-1.6197,-1.6224,-1.6263,-1.6282,-1.6301,-1.6333,-1.6355,-1.6376,-1.6398,-1.6437,-1.6457,-1.6494,-1.6524,-1.6582,-1.6608,-1.6643,-1.6647,-1.6666,-1.6653,-1.6646,-1.6646,-1.6643,-1.6645,-1.6668,-1.6668,-1.6669,-1.6669,0,-1.624,-1.6249,-1.628,-1.6314,-1.634,-1.6368,-1.6396,-1.6412,-1.6437,-1.6462,-1.6498,-1.6522,-1.6569,-1.6605,-1.6642,-1.6663,-1.667,-1.6673,-1.6679,-1.6673,-1.6663,-1.6667,-1.6616,-1.6671,-1.6671,-1.6671,-1.6671,-1.667,-1.6268,-1.6291,-1.6321,-1.6355,-1.6378,-1.6403,-1.6428,-1.6448,-1.6479,-1.6518,-1.6528,-1.6566,-1.6598,-1.6649,-1.6669,-1.6699,-1.6697,-1.6706,-1.6709,-1.671,-1.671,-1.6659,-1.6707,-1.6707,-1.6707,-1.6706,-1.6706,0,-1.631,-1.633,-1.636,-1.6398,-1.6424,-1.6428,-1.6459,-1.648,-1.6513,-1.6542,-1.6571,-1.6612,-1.6647,-1.6675,-1.6711,-1.6729,-1.6733,-1.6738,-1.6736,-1.674,-1.6711,-1.6701,-1.6734,-1.6734,-1.6734,-1.6734,-1.6734,-1.6734,-1.6335,-1.6374,-1.6386,-1.6436,-1.6456,-1.6492,-1.6509,-1.6533,-1.6555,-1.66,-1.6629,-1.6646,-1.6674,-1.6712,-1.6744,-1.6751,-1.6763,-1.6767,-1.6774,-1.6746,-1.6743,-1.674,-1.6731,-1.6769,-1.6769,-1.6801,-1.6802,-1.6802]},{"header":{"parameterUnit":"m.s-1","parameterCategory":1,"la1":30.2991,"la2":30.254,"lo1":-89.0895,"lo2":-89.0444,"dy":0.0017,"dx":0.0017,"nx":28,"ny":28,"refTime":"2024-02-25T03:00:00:Z","depth":0,"parameterNumber":3,"parameterNumberName":"V-component_of_WINDS"},"data":[0,0,0,0,0,0,0,0,0,0,0,0,0,0,0,0,0,0,0,0,0,0,0,0,0,0,0,0,0,0,0,0,0,0,0,0,0,0,0,0,0,0,0,0,0,0,0,0,0,0,0,0,0,0,0,0,0,0,1.8213,1.8214,0,1.8363,1.8364,1.8366,1.8394,1.8392,1.8391,1.839,1.8543,1.8548,1.8554,0,0,0,0,0,0,0,0,0,0,0,0,0,1.7951,1.7956,1.8213,1.8214,1.8216,1.8362,1.8364,1.8366,1.8394,1.8392,1.8391,1.839,1.8542,1.8548,1.8554,0,0,0,0,0,0,0,0,0,0,0,0,0,1.8079,1.7957,1.8212,1.8248,1.8252,1.8362,1.8364,1.8367,1.8394,1.8392,1.8391,1.8389,1.854,1.8547,1.8555,1.864,0,0,1.8579,1.8582,0,0,0,0,0,0,0,0,1.8072,1.8089,1.8241,1.8245,1.8251,1.8358,1.8328,1.8458,1.8395,1.834,1.839,1.8388,1.8483,1.8495,1.8528,1.8647,1.8653,1.858,1.8584,1.8588,1.859,0,0,0,0,0,0,0,1.8063,1.8082,1.8272,1.8243,1.8249,1.8256,1.8272,1.8353,1.842,1.8345,1.8347,1.8365,1.8485,1.852,1.8531,1.8656,1.8579,1.8586,1.8591,1.8594,1.8854,1.8856,0,0,0,0,0,0,1.8048,1.8075,1.8267,1.8276,1.8155,1.8262,1.8281,1.8325,1.8419,1.8432,1.8366,1.8365,1.8507,1.8522,1.8537,1.8644,1.8588,1.8595,1.8599,1.8852,1.8855,1.8857,0,0,0,0,0,0,1.8042,1.8065,1.8261,1.8176,1.8202,1.8269,1.8319,1.8329,1.8364,1.8435,1.8447,1.8389,1.8507,1.8526,1.8614,1.865,1.8598,1.8606,1.8849,1.8853,1.8856,1.8858,0,0,0,0,0,0,1.8034,1.8062,1.8095,1.8177,1.8206,1.8336,1.8321,1.8333,1.8377,1.8378,1.846,1.8472,1.8507,1.8603,1.8622,1.866,1.8612,1.8846,1.8851,1.8855,1.8855,1.8861,1.8866,0,0,0,0,0,1.8025,1.8089,1.8097,1.812,1.8249,1.8338,1.8355,1.8394,1.838,1.8414,1.846,1.8469,1.8642,1.8611,1.8634,1.8674,1.8844,1.885,1.8854,1.8853,1.886,1.8866,0,0,0,0,0,0,1.801,1.8101,1.811,1.8203,1.8262,1.8343,1.8386,1.84,1.8465,1.8463,1.8508,1.8526,1.8613,1.8652,1.8616,1.8762,1.8742,1.8752,1.8733,1.8741,1.8746,1.8736,1.8618,0,0,0,0,0,1.8017,1.8082,1.8158,1.8233,1.8262,1.8319,1.8359,1.8384,1.8448,1.8473,1.8526,1.8588,1.8656,1.87,1.8767,1.886,1.8879,1.8899,1.8904,1.8908,1.8917,1.8971,1.8981,1.8873,1.8873,1.8873,0,0,1.8034,1.8091,1.8129,1.8231,1.828,1.8347,1.834,1.8411,1.8461,1.8484,1.8572,1.8612,1.8684,1.8776,1.8819,1.8811,1.895,1.8915,1.8917,1.8924,1.8977,1.8987,1.8996,1.8877,1.8876,1.8875,0,0,1.8098,1.8147,1.8216,1.8265,1.834,1.8377,1.8394,1.8472,1.85,1.8589,1.8608,1.8668,1.8784,1.8835,1.8876,1.896,1.8972,1.898,1.901,1.9062,1.907,1.9078,1.911,1.912,1.8988,1.8988,1.8988,0,1.8109,1.821,1.8249,1.832,1.8364,1.8388,1.8458,1.8504,1.8597,1.8628,1.8617,1.8765,1.8815,1.892,1.894,1.8972,1.8993,1.8972,1.9066,1.9074,1.9082,1.9113,1.9124,1.8989,1.8989,1.8989,1.8989,0,1.8221,1.8291,1.8337,1.8427,1.8476,1.8546,1.8596,1.8642,1.8662,1.87,1.8791,1.8851,1.8931,1.8958,1.8978,1.9066,1.9059,1.9056,1.9039,1.9092,1.9122,1.9134,1.899,1.899,1.8989,1.8989,0,0,1.8282,1.8392,1.8408,1.845,1.8534,1.8589,1.866,1.8738,1.8778,1.884,1.8902,1.9,1.8999,1.9045,1.9071,1.9116,1.9181,1.9109,1.9111,1.9122,1.9284,1.9287,1.93,1.9189,1.9191,1.9193,1.9279,0,1.8358,1.8486,1.8523,1.8631,1.8697,1.872,1.8782,1.8841,1.8878,1.894,1.8981,1.9051,1.9043,1.9072,1.9117,1.9164,1.9215,1.9158,1.9248,1.9251,1.9232,1.9316,1.9319,1.9397,1.9291,1.9293,1.9294,0,1.8464,1.8529,1.8644,1.8721,1.875,1.8805,1.8881,1.8939,1.9006,1.903,1.9082,1.9104,1.918,1.9156,1.9262,1.9222,1.9261,1.9289,1.9293,1.9305,1.9277,1.9332,1.9423,1.9436,1.9313,1.9311,1.931,0,1.8499,1.8616,1.87,1.8734,1.8825,1.8864,1.8904,1.8969,1.9014,1.908,1.911,1.9183,1.9224,1.9281,1.9322,1.9301,1.9425,1.9404,1.9449,1.9448,1.9476,1.9474,1.9576,1.9496,1.9496,1.9496,1.9496,0,1.8582,1.8652,1.8717,1.8769,1.8848,1.889,1.8967,1.9008,1.9066,1.9127,1.915,1.9207,1.9257,1.9321,1.9353,1.9437,1.9454,1.9477,1.9485,1.9477,1.9474,1.9504,1.9501,1.9499,1.9499,1.9498,1.9497,0,1.8636,1.8682,1.8776,1.8854,1.8876,1.8931,1.8998,1.905,1.9088,1.9165,1.9185,1.9245,1.9321,1.9368,1.9464,1.9486,1.9579,1.9584,1.9556,1.9561,1.9603,1.96,1.9731,1.9752,1.9656,1.9656,1.9657,0,1.8687,1.8741,1.8825,1.8868,1.8908,1.8976,1.9022,1.9065,1.9113,1.9193,1.9236,1.9313,1.9378,1.9498,1.955,1.9624,1.9633,1.9674,1.9644,1.9634,1.9636,1.9633,1.964,1.9679,1.968,1.9681,1.9681,0,1.8773,1.8793,1.8859,1.8934,1.8988,1.9049,1.9109,1.9143,1.9196,1.9248,1.9326,1.9376,1.9474,1.9551,1.963,1.9671,1.9686,1.969,1.9705,1.9697,1.968,1.9692,1.9572,1.9687,1.9687,1.9686,1.9686,1.9686,1.8829,1.8879,1.8946,1.9019,1.9069,1.9125,1.9178,1.9223,1.9289,1.9372,1.9393,1.9475,1.9542,1.9649,1.9691,1.9757,1.9751,1.9771,1.9777,1.9782,1.9784,1.9667,1.9771,1.9771,1.9771,1.977,1.977,0,1.8919,1.8963,1.9029,1.9113,1.9171,1.9178,1.9246,1.9294,1.9366,1.9426,1.9489,1.9579,1.9654,1.9712,1.979,1.9831,1.984,1.985,1.9848,1.9858,1.9784,1.9765,1.9841,1.9841,1.9841,1.9841,1.9841,1.9841,1.8972,1.9058,1.9086,1.9197,1.9241,1.9322,1.936,1.9412,1.946,1.956,1.9622,1.966,1.972,1.9801,1.9871,1.9886,1.9914,1.9923,1.994,1.9871,1.9863,1.9856,1.9838,1.9929,1.9929,2.0009,2.001,2.001]}]]